• In Hungary
  • List of Countries
  • For 7 days
  • Water Temperature
  • Satellite Maps
  • Weather Map
  • News
  • Weather Widgets
  • user-avatar
    Login

    Hourly Weather Boguchwalow

    Today, 22 August, Wednesday

    Time Temperature Precipitation Wind Pressure Humidity
    00:00 +19°C° 0 mm 1 mps 741 mmHg 78%
    01:00 +19°C° 0 mm 1 mps 741 mmHg 79%
    02:00 +18°C° 0 mm 1 mps 741 mmHg 80%
    03:00 +18°C° 0 mm 1 mps 741 mmHg 81%
    04:00 +18°C° 0 mm 1 mps 741 mmHg 81%
    05:00 +19°C° 0 mm 1 mps 741 mmHg 78%
    06:00 +20°C° 0 mm 1 mps 742 mmHg 74%
    07:00 +21°C° 0 mm 1 mps 742 mmHg 70%
    08:00 +21°C° 0 mm 2 mps 742 mmHg 65%
    09:00 +24°C° 0 mm 2 mps 742 mmHg 59%
    10:00 +26°C° 0 mm 2 mps 742 mmHg 54%
    11:00 +27°C° 0 mm 2 mps 742 mmHg 51%
    12:00 +28°C° 0 mm 2 mps 741 mmHg 48%
    13:00 +29°C° 0 mm 1 mps 741 mmHg 45%
    14:00 +29°C° 0 mm 1 mps 741 mmHg 45%
    15:00 +29°C° 0 mm 1 mps 740 mmHg 45%
    16:00 +29°C° 0 mm 1 mps 740 mmHg 45%
    17:00 +27°C° 0 mm 1 mps 740 mmHg 50%
    18:00 +25°C° 0 mm 1 mps 740 mmHg 55%
    19:00 +24°C° 0 mm 1 mps 740 mmHg 59%
    20:00 +23°C° 0 mm 2 mps 740 mmHg 61%
    21:00 +21°C° 0 mm 2 mps 740 mmHg 63%
    22:00 +21°C° 0 mm 2 mps 740 mmHg 65%
    23:00 +20°C° 0 mm 2 mps 740 mmHg 67%

    Tomorrow, 23 August, Thursday

    Time Temperature Precipitation Wind Pressure Humidity
    00:00 +20°C° 0 mm 2 mps 739 mmHg 69%
    01:00 +19°C° 0 mm 2 mps 739 mmHg 71%
    02:00 +20°C° 0 mm 2 mps 739 mmHg 71%
    03:00 +20°C° 0 mm 2 mps 739 mmHg 71%
    04:00 +21°C° 0 mm 1 mps 739 mmHg 71%
    05:00 +21°C° 0 mm 2 mps 739 mmHg 70%
    06:00 +21°C° 0 mm 2 mps 738 mmHg 69%
    07:00 +23°C° 0 mm 2 mps 738 mmHg 67%
    08:00 +25°C° 0 mm 2 mps 738 mmHg 61%
    09:00 +27°C° 0 mm 3 mps 738 mmHg 55%
    10:00 +29°C° 0 mm 3 mps 738 mmHg 50%
    11:00 +30°C° 0 mm 3 mps 738 mmHg 46%
    12:00 +31°C° 0 mm 3 mps 738 mmHg 43%
    13:00 +33°C° 0 mm 4 mps 737 mmHg 39%
    14:00 +33°C° 0 mm 3 mps 737 mmHg 40%
    15:00 +33°C° 0 mm 3 mps 737 mmHg 41%
    16:00 +33°C° 0 mm 3 mps 736 mmHg 42%
    17:00 +30°C° 0 mm 3 mps 736 mmHg 47%
    18:00 +28°C° 0 mm 3 mps 736 mmHg 53%
    19:00 +26°C° 0 mm 2 mps 736 mmHg 58%
    20:00 +26°C° 0 mm 2 mps 736 mmHg 59%
    21:00 +25°C° 0 mm 2 mps 736 mmHg 61%
    22:00 +24°C° 0 mm 2 mps 736 mmHg 63%
    23:00 +24°C° 0 mm 2 mps 735 mmHg 64%

    Day after tomorrow, 24 August, Friday

    Time Temperature Precipitation Wind Pressure Humidity
    00:00 +23°C° 0 mm 2 mps 735 mmHg 65%
    01:00 +23°C° 0 mm 2 mps 735 mmHg 66%
    02:00 +23°C° 0 mm 2 mps 735 mmHg 66%
    03:00 +22°C° 0 mm 3 mps 734 mmHg 67%
    04:00 +21°C° 0 mm 3 mps 734 mmHg 67%
    05:00 +22°C° 0 mm 3 mps 734 mmHg 65%
    06:00 +24°C° 0 mm 3 mps 734 mmHg 63%
    07:00 +25°C° 0 mm 3 mps 734 mmHg 60%
    08:00 +27°C° 0 mm 4 mps 734 mmHg 55%
    09:00 +29°C° 0 mm 5 mps 734 mmHg 50%
    10:00 +30°C° 0 mm 5 mps 734 mmHg 45%
    11:00 +32°C° 0 mm 6 mps 733 mmHg 43%
    12:00 +32°C° 0 mm 6 mps 733 mmHg 42%
    13:00 +33°C° 0 mm 6 mps 733 mmHg 40%
    14:00 +32°C° 0.1 mm 5 mps 733 mmHg 44%
    15:00 +30°C° 0.1 mm 4 mps 732 mmHg 47%
    16:00 +29°C° 0.1 mm 3 mps 732 mmHg 50%
    17:00 +27°C° 1 mm 3 mps 732 mmHg 58%
    18:00 +26°C° 1 mm 3 mps 732 mmHg 66%
    19:00 +24°C° 1 mm 3 mps 732 mmHg 74%
    20:00 +23°C° 2.8 mm 2 mps 732 mmHg 78%
    21:00 +21°C° 2.8 mm 2 mps 732 mmHg 83%
    22:00 +21°C° 2.8 mm 1 mps 732 mmHg 87%
    23:00 +21°C° 1.4 mm 1 mps 733 mmHg 88%

    25 August, Saturday

    Time Temperature Precipitation Wind Pressure Humidity
    00:00 +21°C° 1.4 mm 1 mps 733 mmHg 89%
    01:00 +20°C° 1.4 mm 1 mps 733 mmHg 89%
    02:00 +19°C° 0.2 mm 2 mps 733 mmHg 90%
    03:00 +19°C° 0.2 mm 2 mps 733 mmHg 90%
    04:00 +18°C° 0.2 mm 3 mps 733 mmHg 91%
    05:00 +18°C° 0.4 mm 3 mps 733 mmHg 90%
    06:00 +18°C° 0.4 mm 3 mps 733 mmHg 89%
    07:00 +18°C° 0.4 mm 3 mps 733 mmHg 88%
    08:00 +18°C° 0.4 mm 3 mps 734 mmHg 84%
    09:00 +19°C° 0.4 mm 3 mps 734 mmHg 80%
    10:00 +19°C° 0.4 mm 3 mps 734 mmHg 76%
    11:00 +20°C° 0.2 mm 3 mps 734 mmHg 73%
    12:00 +20°C° 0.2 mm 3 mps 734 mmHg 70%
    13:00 +21°C° 0.2 mm 3 mps 734 mmHg 66%
    14:00 +20°C° 0.6 mm 4 mps 735 mmHg 70%
    15:00 +19°C° 0.6 mm 4 mps 735 mmHg 74%
    16:00 +17°C° 0.6 mm 4 mps 735 mmHg 78%
    17:00 +17°C° 0.7 mm 4 mps 735 mmHg 81%
    18:00 +15°C° 0.7 mm 4 mps 735 mmHg 84%
    19:00 +14°C° 0.7 mm 3 mps 736 mmHg 86%
    20:00 +13°C° 0.8 mm 3 mps 736 mmHg 87%
    21:00 +13°C° 0.8 mm 3 mps 736 mmHg 88%
    22:00 +13°C° 0.8 mm 2 mps 736 mmHg 88%
    23:00 +13°C° 0.3 mm 2 mps 736 mmHg 88%

    26 August, Sunday

    Time Temperature Precipitation Wind Pressure Humidity
    00:00 +13°C° 0.3 mm 2 mps 736 mmHg 88%
    01:00 +13°C° 0.3 mm 2 mps 736 mmHg 87%
    02:00 +13°C° 0.2 mm 2 mps 736 mmHg 88%
    03:00 +13°C° 0.2 mm 2 mps 735 mmHg 88%
    04:00 +13°C° 0.2 mm 1 mps 735 mmHg 88%
    05:00 +13°C° 0.8 mm 2 mps 736 mmHg 88%
    06:00 +13°C° 0.8 mm 2 mps 736 mmHg 88%
    07:00 +13°C° 0.8 mm 2 mps 736 mmHg 88%
    08:00 +13°C° 0.9 mm 2 mps 736 mmHg 85%
    09:00 +14°C° 0.9 mm 2 mps 736 mmHg 83%
    10:00 +14°C° 0.9 mm 2 mps 736 mmHg 81%
    11:00 +15°C° 0.4 mm 2 mps 736 mmHg 77%
    12:00 +15°C° 0.4 mm 2 mps 736 mmHg 74%
    13:00 +16°C° 0.4 mm 2 mps 736 mmHg 70%
    14:00 +16°C° 0.1 mm 2 mps 737 mmHg 69%
    15:00 +16°C° 0.1 mm 2 mps 737 mmHg 67%
    16:00 +17°C° 0.1 mm 2 mps 737 mmHg 66%
    17:00 +15°C° 0.1 mm 2 mps 737 mmHg 71%
    18:00 +14°C° 0.1 mm 1 mps 737 mmHg 76%
    19:00 +13°C° 0.1 mm 1 mps 737 mmHg 81%
    20:00 +12°C° 0 mm 1 mps 738 mmHg 82%
    21:00 +12°C° 0 mm 1 mps 738 mmHg 83%
    22:00 +11°C° 0 mm 1 mps 738 mmHg 84%
    23:00 +11°C° 0 mm 1 mps 739 mmHg 83%

    27 August, Monday

    Time Temperature Precipitation Wind Pressure Humidity
    00:00 +11°C° 0 mm 1 mps 739 mmHg 83%
    01:00 +11°C° 0 mm 1 mps 739 mmHg 83%
    02:00 +11°C° 0 mm 1 mps 739 mmHg 83%
    03:00 +11°C° 0 mm 1 mps 739 mmHg 82%
    04:00 +10°C° 0 mm 1 mps 740 mmHg 82%
    05:00 +11°C° 0 mm 1 mps 740 mmHg 79%
    06:00 +12°C° 0 mm 1 mps 740 mmHg 76%
    07:00 +14°C° 0 mm 2 mps 741 mmHg 73%
    08:00 +15°C° 0 mm 2 mps 741 mmHg 66%
    09:00 +17°C° 0 mm 2 mps 741 mmHg 59%
    10:00 +19°C° 0 mm 3 mps 741 mmHg 52%
    11:00 +19°C° 0 mm 3 mps 741 mmHg 49%
    12:00 +20°C° 0 mm 3 mps 741 mmHg 47%
    13:00 +20°C° 0 mm 3 mps 741 mmHg 44%
    14:00 +20°C° 0 mm 3 mps 741 mmHg 44%
    15:00 +20°C° 0 mm 3 mps 741 mmHg 45%
    16:00 +20°C° 0 mm 3 mps 741 mmHg 45%
    17:00 +19°C° 0 mm 3 mps 741 mmHg 50%
    18:00 +17°C° 0 mm 2 mps 741 mmHg 55%
    19:00 +15°C° 0 mm 2 mps 741 mmHg 60%
    20:00 +15°C° 0 mm 2 mps 742 mmHg 61%
    21:00 +14°C° 0 mm 1 mps 742 mmHg 62%
    22:00 +13°C° 0 mm 1 mps 742 mmHg 63%
    23:00 +13°C° 0 mm 1 mps 742 mmHg 64%
    Show more